Regional Weather Roundup
Issued by NWS Cleveland, OH

Home | Current Version | Previous Version | Graphics & Text | Print | Product List | Glossary On
Versions: 1 2 3 4 5 6 7 8 9 10 11 12 13 14 15 16 17 18 19 20 21 22 23 24 25 26 27 28 29 30 31 32 33 34 35 36 37 38 39 40 41 42 43 44 45 46 47 48 49 50
025
ASUS41 KCLE 260210
RWRCLE
OHIO REGIONAL WEATHER ROUNDUP
NATIONAL WEATHER SERVICE WILMINGTON, OH
900 PM EST SAT FEB 25 2017

NOTE: "FAIR" INDICATES FEW OR NO CLOUDS BELOW 12,000 FEET WITH NO
SIGNIFICANT WEATHER AND/OR OBSTRUCTIONS TO VISIBILITY.

OHZ001>008-015>018-024>027-034-035-043-044-260300-
   NORTHWEST OHIO

CITY           SKY/WX    TMP DP  RH WIND       PRES   REMARKS
DEFIANCE       CLOUDY    26  14  60 W10G16    29.97R WCI  16
FINDLAY        CLOUDY    28  18  66 W17       29.96R WCI  16
TOLEDO EXPRESS CLOUDY    26  18  71 W16       29.95R WCI  14
TOLEDO EXEC    CLOUDY    28  17  63 W15       29.96R WCI  16
LIMA           CLOUDY    27  22  81 W15       29.97R WCI  15
$$

OHZ009>014-019>023-028>033-038-089-260300-
   NORTHEAST OHIO

CITY           SKY/WX    TMP DP  RH WIND       PRES   REMARKS
CLE-HOPKINS    FLURRIES  29  16  58 W20G29    29.95R WCI  16
CLE-LAKEFRONT  FLURRIES  30  19  63 W25G32    29.92R WCI  16
CUY CO. ARPT   FLURRIES  30  21  69 W17G32    29.91R WCI  18
LORAIN-ELYRIA  FLURRIES  26  18  71 W18G25    29.95R WCI  13
ASHTABULA      CLOUDY    28  20  71 W21G30    29.88R WCI  15
AKRON-CANTON   FLURRIES  28  17  63 W14       29.91R WCI  17
WOOSTER        FLURRIES  26  17  68 W20       29.94R WCI  12
MANSFIELD      CLOUDY    25  17  72 W14G24    29.93R WCI  13
YOUNGSTOWN     LGT SNOW  29  19  66 W13G23    29.87R WCI  19
$$

OHZ042-051>053-060>062-070>072-077>081-260300-
  SOUTHWEST OHIO

CITY           SKY/WX    TMP DP  RH WIND       PRES   REMARKS
CINC-COVINGTON CLOUDY    30  16  56 W8        30.04R WCI  22
CINC-LUNKEN    CLOUDY    33  17  51 W13G21    30.07R WCI  24
HAMILTON       CLOUDY    32  18  56 W9        30.06R WCI  24
DAYTON         CLOUDY    29  19  66 W12       30.01R WCI  19
WRIGHT-PAT AFB CLOUDY    30  20  67 W7        30.01R WCI  23
DAYTON GENERAL CLOUDY    31  16  54 W12       30.01R WCI  22
WILMINGTON     CLOUDY    30  17  58 W16G32    30.01R WCI  19
$$

OHZ036-037-039>041-045>050-054>059-063>069-073>076-082>088-260300-
  CENTRAL AND SOUTHEAST OHIO

CITY           SKY/WX    TMP DP  RH WIND       PRES   REMARKS
COLUMBUS       CLOUDY    30  19  63 W15G23    30.00R WCI  19
OSU AIRPORT    CLOUDY    28  19  69 W20       29.99S WCI  15
BOLTON FIELD   CLOUDY    28  20  71 W6        30.01R WCI  22
RICKENBACK AFB CLOUDY    29  20  70 W9        30.02R WCI  20
NEWARK         CLOUDY    29  17  61 W16       30.00R WCI  17
MARION         FLURRIES  27  19  72 W14       29.98R WCI  16
LANCASTER      CLOUDY    30  20  66 W7        30.01R WCI  23
ZANESVILLE     CLOUDY    30  14  51 W18G31    29.99R WCI  18
NEW PHILLY     CLOUDY    29  19  66 W12G29    29.97R WCI  19
$$




USA.gov is the U.S. government's official web portal to all federal, state and local government web resources and services.